CAPE
115 36 3 0 0 0 0 0 0 0 0 0 0 0 0 0 0 0 0 0 1 29 72 51 37 23 13 8 1 12 4 3 3 2 2 14 10 7 5 4 1 0 0
65 0 0 0 0 0 0 0 0 0 0 0 0 0 0 0 0 0 0 0 0 0 0 3 20 32 12 1 0 1 1 1 0 2 5 11 17 14 7 4 3 3 2
6 0 0 0 0 0 0 0 0 0 0 0 0 0 0 0 0 0 0 0 0 0 0 0 0 0 0 0 0 0 0 0 0 2 3 9 20 7 4 5 5 4 4
0 0 0 0 0 0 0 0 0 0 0 0 0 0 0 0 0 0 0 0 0 0 0 0 0 0 0 0 0 0 0 0 0 1 4 10 13 16 9 7 10 7 8
0 0 0 0 0 0 0 0 0 0 0 0 0 0 0 0 0 0 0 0 0 0 0 0 0 0 0 0 0 0 0 0 0 4 10 18 28 31 26 29 19 15 19
0 0 0 0 0 0 0 0 0 0 0 0 0 0 0 0 0 0 0 0 0 0 0 0 0 0 0 0 0 0 0 0 0 2 5 5 4 6 10 17 23 31 34
0 0 0 0 0 0 0 0 0 0 0 0 0 0 0 0 0 0 0 0 0 0 0 0 0 0 0 0 0 0 0 0 0 0 1 3 7 9 10 18 34 37 50
0 0 0 0 0 0 0 0 0 0 0 0 0 0 1 0 0 0 0 0 0 0 0 0 0 0 0 0 0 0 0 0 0 0 1 4 7 16 27 37 51 67 70
0 0 0 0 0 0 0 0 0 0 0 0 0 0 0 0 0 0 0 0 0 0 0 0 0 0 0 0 0 0 0 0 0 0 1 5 9 15 24 36 54 70 84
0 0 0 0 0 0 0 0 0 0 0 0 0 0 0 0 0 0 0 0 1 0 1 0 0 1 0 1 0 0 0 0 0 0 1 7 12 18 32 41 49 66 83
0 0 0 0 0 0 0 0 0 0 0 0 0 0 0 0 0 0 0 0 0 0 0 2 3 0 0 2 4 3 0 0 0 0 0 0 3 11 20 38 49 60 79
0 0 0 0 0 0 0 0 0 0 0 0 0 0 0 0 0 0 0 0 0 0 0 0 2 4 7 8 1 0 0 0 0 0 0 0 0 4 15 29 41 52 62
0 0 0 0 0 0 0 0 0 0 0 0 0 0 0 0 0 0 0 0 0 0 2 4 8 12 10 8 4 0 0 0 0 0 0 0 0 6 9 16 29 42 59
0 0 0 0 0 0 0 0 0 0 0 0 0 0 0 0 0 0 0 0 0 1 9 17 28 30 18 12 1 0 0 0 0 0 0 0 0 1 4 11 24 34 53
0 0 0 0 0 0 0 0 0 0 0 0 0 3 0 0 1 2 2 1 5 8 4 11 13 15 18 16 6 0 0 0 0 0 0 0 0 1 5 11 23 31 46
0 0 0 0 0 0 0 0 0 0 0 3 2 2 1 0 0 3 1 12 16 20 19 22 19 18 13 1 2 0 0 0 0 0 0 0 0 1 5 9 12 16 20
0 0 0 0 0 0 0 0 0 0 0 0 7 0 1 0 1 5 13 18 28 32 29 20 23 16 13 10 4 2 0 0 0 0 0 0 0 1 4 4 6 10 14
0 0 0 0 0 0 0 0 0 0 0 0 2 9 2 1 16 20 37 42 45 40 36 27 25 15 20 6 2 1 0 0 0 0 0 0 0 0 0 1 2 3 3
0 0 0 0 0 0 0 0 0 0 0 1 3 9 13 24 51 51 57 60 51 36 41 30 19 17 10 3 3 1 0 0 0 0 0 2 0 0 0 0 0 1 2
0 0 0 0 0 0 0 0 0 7 9 5 1 7 26 36 40 55 71 74 58 57 54 33 20 15 5 1 2 0 0 0 0 0 0 4 0 0 0 0 0 0 0
0 0 0 0 0 0 2 5 10 6 11 4 10 14 23 8 0 13 44 58 53 52 47 26 21 11 1 1 2 0 0 0 0 2 3 10 13 14 25 29 19 12 0
0 0 0 0 0 11 0 0 0 3 8 6 13 14 14 1 0 0 0 0 0 41 32 31 25 3 0 2 4 1 0 1 0 1 4 7 14 13 25 35 17 0 0
0 0 0 0 7 0 0 0 0 0 9 19 14 11 4 0 0 1 0 0 0 0 0 0 9 1 0 1 3 0 1 2 3 2 4 6 13 12 29 24 23 2 4
0 0 1 0 0 3 1 0 0 0 23 5 2 1 1 0 0 6 3 4 0 0 0 0 0 0 0 1 0 0 3 7 7 7 6 7 10 23 28 31 28 20 0
5 5 0 0 1 21 0 0 0 6 2 0 0 0 0 0 0 0 0 3 8 5 0 0 0 0 0 0 0 0 6 13 19 6 3 9 7 17 20 26 32 9 18
8 2 0 0 0 0 0 0 0 3 4 5 3 0 0 0 0 0 0 1 10 9 1 0 0 0 0 0 0 1 6 17 20 11 6 10 11 15 18 13 16 25 44
CIN
-46 -58 -42 0 0 0 0 0 0 0 0 0 0 0 0 0 0 0 0 0 -1 -2 0 0 0 0 0 0 -1 0 0 0 -1 0 0 0 0 0 0 0 0 0 0
-57 0 0 0 0 0 0 0 0 0 0 0 0 0 0 0 0 0 0 0 0 0 0 0 0 0 0 -1 0 0 0 0 0 0 0 -1 -1 0 0 0 0 0 0
-30 0 0 0 0 0 0 0 0 0 0 0 0 0 0 0 0 0 0 0 0 0 0 0 0 0 0 0 0 0 0 0 0 0 0 0 0 -1 0 0 0 0 0
0 0 0 0 0 0 0 0 0 0 0 0 0 0 0 0 0 0 0 0 0 0 0 0 0 0 0 0 0 0 0 0 0 0 0 0 0 0 0 0 -1 0 0
0 0 0 0 0 0 0 0 0 0 0 0 0 0 0 0 0 0 0 0 0 0 0 0 0 0 0 0 0 0 0 0 0 0 0 0 0 0 0 0 0 0 0
0 0 0 0 0 0 0 0 0 0 0 0 0 0 0 0 0 0 0 0 0 0 0 0 0 0 0 0 0 0 0 0 0 0 0 0 0 0 0 0 -1 0 0
0 0 0 0 0 0 0 0 0 0 0 0 0 0 0 0 0 0 0 0 0 0 0 0 0 0 0 0 0 0 0 0 0 0 0 0 0 0 0 0 0 0 0
0 0 0 0 0 0 0 0 0 0 0 0 0 0 0 0 0 0 0 0 0 0 0 0 0 0 0 0 0 0 0 0 0 0 0 0 0 0 0 0 0 0 0
0 0 0 0 0 0 0 0 0 0 0 0 0 0 0 0 0 0 0 0 0 0 0 0 0 0 0 0 0 0 0 0 0 0 0 0 0 0 0 0 0 0 0
0 0 0 0 0 0 0 0 0 0 0 0 0 0 0 0 0 0 0 0 0 0 0 0 0 0 0 0 0 0 0 0 0 0 0 0 0 0 0 0 0 0 0
0 0 0 0 0 0 0 0 0 0 0 0 0 0 0 0 0 0 0 0 0 0 0 0 0 0 0 0 0 0 0 0 0 0 0 0 0 0 0 0 0 0 0
0 0 0 0 0 0 0 0 0 0 0 0 0 0 0 0 0 0 0 0 0 0 0 0 0 0 0 0 0 0 0 0 0 0 0 0 0 0 0 0 0 0 0
0 0 0 0 0 0 0 0 0 0 0 0 0 0 0 0 0 0 0 0 0 0 0 0 0 0 0 0 0 0 0 0 0 0 0 0 0 0 0 0 0 0 0
0 0 0 0 0 0 0 0 0 0 0 0 0 0 0 0 0 0 0 0 0 0 0 0 0 0 0 0 0 0 0 0 0 0 0 0 0 0 0 0 0 0 0
0 0 0 0 0 0 0 0 0 0 0 0 0 0 0 0 0 0 0 0 0 0 0 0 0 0 0 0 -1 0 0 0 0 0 0 0 0 0 0 0 0 0 0
0 0 0 0 0 0 0 0 0 0 0 0 0 0 0 0 0 0 0 0 0 0 0 0 0 0 0 0 0 0 0 0 0 0 0 0 0 0 0 0 0 0 0
0 0 0 0 0 0 0 0 0 0 0 0 0 0 0 0 0 0 0 0 0 0 0 0 0 0 0 0 0 0 0 0 0 0 0 0 0 0 0 0 0 0 0
0 0 0 0 0 0 0 0 0 0 0 0 0 0 0 0 0 0 0 0 0 0 0 0 0 0 0 0 0 0 0 0 0 0 0 0 0 0 0 0 0 0 0
0 0 0 0 0 0 0 0 0 0 0 0 0 0 0 0 0 0 0 0 0 0 0 0 0 0 0 0 0 0 0 0 0 0 0 -3 0 0 0 0 0 0 0
0 0 0 0 0 0 0 0 0 -2 0 0 0 0 0 0 0 0 0 0 0 0 0 0 0 0 0 0 0 0 0 0 0 0 0 -8 0 0 -7 0 0 0 0
0 0 0 0 0 0 0 -1 0 0 0 0 0 0 0 0 0 0 -1 0 0 0 0 0 0 0 0 0 0 0 0 0 0 0 0 0 0 0 0 -2 -5 -3 -1
0 0 0 0 0 0 0 0 0 0 0 0 0 0 0 -8 0 0 0 0 -2 0 0 0 0 0 0 0 0 0 0 0 0 0 0 0 0 0 0 0 -9 0 0
0 0 0 0 -1 0 0 0 0 0 0 0 0 0 0 0 0 0 0 0 0 0 0 0 0 0 0 0 0 0 0 0 0 0 0 0 0 0 0 0 -5 -6 0
0 0 0 0 0 0 -1 0 0 0 0 0 0 0 0 0 0 -2 0 0 0 0 0 0 0 0 0 0 0 0 0 0 0 0 0 0 0 0 0 0 -3 -1 0
0 0 0 0 0 0 0 0 0 0 0 0 0 0 0 0 0 0 0 0 0 0 0 0 0 0 0 0 0 0 0 0 0 0 0 0 0 0 0 0 0 -2 -1
0 0 0 0 0 0 -1 0 0 0 0 0 0 0 0 0 0 0 0 0 -1 -2 0 0 0 0 0 0 0 0 0 0 0 0 0 0 0 0 0 0 0 0 0
Wind_Speed
6 6 6 7 6 7 6 5 6 6 6 6 5 6 7 7 6 5 5 14 14 9 6 6 7 6 6 6 6 6 6 7 8 8 9 6 6 8 9 11 13 14 16
6 7 6 6 6 5 5 5 5 5 4 5 6 6 6 6 6 5 4 9 14 14 11 8 8 7 5 5 4 5 6 7 8 9 10 9 6 9 10 11 13 15 15
8 8 7 6 5 5 7 6 6 4 4 4 5 4 3 3 4 3 3 3 9 13 13 10 9 7 6 6 6 7 8 9 11 11 12 8 8 12 12 10 12 14 15
10 8 7 6 6 6 6 5 4 3 3 2 2 2 1 1 1 1 1 1 1 1 10 8 8 7 7 8 9 10 11 12 13 13 14 14 10 12 8 10 13 15 15
10 7 6 6 8 6 5 5 4 1 3 2 2 3 3 3 4 2 3 3 2 1 2 9 6 7 7 7 8 9 10 12 13 14 16 17 18 17 14 14 15 15 16
9 8 6 7 7 6 5 5 5 2 0 1 3 3 3 3 3 4 4 3 3 1 3 5 2 6 6 6 7 7 10 11 13 15 16 17 18 18 20 19 18 18 18
11 10 7 8 7 6 5 5 5 5 3 2 3 5 5 5 5 4 5 4 4 4 3 3 4 5 4 7 2 7 9 11 13 15 17 18 19 20 21 22 22 21 20
12 10 9 9 8 6 7 7 5 4 3 4 5 5 6 6 6 6 5 4 4 4 4 4 5 5 5 5 5 4 6 10 13 15 17 18 20 21 22 22 23 22 21
12 11 11 10 10 7 7 8 8 8 5 4 8 5 4 5 2 8 7 6 5 6 4 5 5 5 6 6 4 4 6 7 10 14 16 18 20 21 22 23 24 24 24
12 12 12 11 11 8 8 8 7 7 7 6 4 7 6 5 5 4 6 6 6 7 6 6 6 6 6 7 4 2 3 7 11 14 18 20 22 24 24 25 26 27 27
10 13 12 11 10 7 8 9 7 7 6 5 5 3 5 4 5 6 8 5 5 6 4 5 5 6 7 6 7 3 6 10 14 17 20 21 23 24 25 26 27 28 29
7 11 13 11 10 9 9 7 6 6 7 6 5 5 5 5 5 6 7 7 6 5 5 6 6 6 6 6 7 1 9 14 15 17 19 20 21 22 23 24 25 26 27
7 10 9 8 5 6 9 9 5 4 8 8 6 5 5 5 5 5 6 7 7 5 5 5 7 6 6 7 8 3 12 16 13 17 19 20 21 22 23 23 24 24 25
7 12 8 11 11 9 9 4 5 7 9 6 7 7 5 5 5 5 6 6 7 8 8 9 6 6 6 8 8 9 13 13 14 16 20 21 21 22 23 23 24 25 25
11 11 12 11 9 8 9 9 9 9 7 8 8 8 7 5 5 5 6 7 7 9 9 8 7 6 5 8 8 11 13 17 16 19 19 19 21 22 23 24 24 24 26
13 14 12 9 7 8 8 11 9 8 9 5 7 8 7 5 6 6 7 7 7 9 11 8 8 8 7 8 10 10 13 16 19 15 17 18 21 22 23 24 25 25 25
14 13 12 11 12 10 12 8 9 8 6 7 8 10 10 8 7 7 7 8 8 9 11 9 9 9 8 11 11 11 12 13 12 14 14 18 20 22 23 22 21 22 23
9 11 13 13 12 12 9 9 9 4 3 10 13 12 11 8 11 11 8 10 10 10 10 14 11 10 11 9 12 12 11 11 12 14 14 19 21 21 20 20 21 23 23
11 11 12 12 10 10 11 9 6 3 6 14 13 13 13 14 13 11 11 10 10 9 9 10 11 9 9 9 10 11 11 12 10 15 15 15 15 17 19 22 22 22 22
12 12 12 12 10 11 10 7 4 6 12 12 12 14 14 16 16 14 14 13 11 10 10 10 10 10 9 9 8 10 10 9 10 11 13 10 14 18 21 21 20 20 20
8 8 10 6 10 8 6 4 3 8 12 13 14 15 17 18 17 16 12 13 12 11 9 10 10 10 9 9 9 8 10 10 11 10 10 9 11 11 12 12 16 16 13
9 8 9 9 9 4 7 2 6 8 13 14 14 15 16 16 16 16 18 14 11 12 12 11 11 11 12 10 8 8 9 10 11 8 11 11 11 11 11 10 6 11 17
9 8 8 8 7 5 4 6 6 8 12 15 15 15 15 13 13 16 18 14 12 10 12 12 13 12 12 10 10 10 10 10 11 11 11 12 10 11 11 10 6 12 15
10 10 9 8 6 7 5 7 9 7 13 16 16 17 17 18 17 14 17 15 16 14 14 11 14 13 11 10 10 10 10 12 11 10 10 12 10 10 11 11 13 11 8
7 5 4 6 8 10 5 10 10 11 14 16 15 16 16 17 16 13 16 17 16 14 8 11 10 7 3 4 9 9 9 10 10 10 9 8 9 11 11 12 7 4 13
1 2 2 3 5 8 13 10 9 10 13 11 15 16 14 15 16 13 16 16 16 14 13 13 12 14 14 14 16 14 10 10 10 10 8 8 10 11 9 11 7 11 10
Wind_Direction
150 145 146 155 154 154 140 133 129 114 120 104 80 60 55 51 39 18 72 37 32 30 98 111 108 108 96 73 55 58 35 24 19 11 5 14 14 16 16 14 10 3 358
154 151 156 151 160 153 139 131 133 137 94 100 87 64 57 50 44 15 38 89 48 48 53 57 64 85 82 74 43 22 0 354 344 339 342 343 353 356 353 355 357 351 347
168 160 163 169 157 127 121 138 133 115 106 86 85 90 90 62 64 49 20 17 124 71 61 60 55 47 30 9 356 349 339 343 338 335 331 323 331 322 327 340 339 337 333
174 179 171 164 148 160 151 140 135 117 113 107 111 111 105 104 119 111 57 293 59 144 117 59 55 42 30 17 0 347 338 333 329 324 319 313 304 309 316 316 320 324 319
178 188 170 160 175 157 152 153 128 162 128 140 172 187 193 201 198 188 157 150 105 310 357 112 85 59 25 11 353 341 335 333 331 329 328 325 324 321 311 311 314 308 308
181 189 161 165 175 163 162 152 124 122 84 180 230 220 226 219 218 209 186 208 159 237 288 310 274 117 85 16 354 343 334 333 334 331 326 319 315 315 312 308 300 300 302
184 187 164 172 186 182 158 143 139 162 152 184 240 214 221 225 222 222 220 221 188 241 311 290 292 321 155 150 76 349 337 333 330 326 323 318 314 309 304 300 298 297 296
191 183 179 178 192 163 158 155 167 170 178 200 278 297 279 193 204 221 226 222 223 255 241 251 306 287 286 304 51 299 335 330 325 326 322 319 316 312 307 303 299 296 296
191 185 188 183 178 181 170 175 184 188 195 197 245 297 288 277 41 162 209 237 230 248 267 246 247 277 284 293 272 295 40 342 324 319 317 315 311 307 304 301 300 299 297
192 193 191 186 178 178 179 182 182 187 207 210 207 254 277 307 277 262 180 205 227 250 250 279 299 270 267 280 311 183 17 339 327 320 313 309 306 302 299 298 296 295 295
197 197 189 186 183 185 180 177 175 204 222 228 243 208 230 236 248 278 282 261 196 226 238 267 294 288 280 282 294 14 13 322 316 314 311 307 304 301 299 297 296 295 294
195 200 190 190 183 182 173 174 180 219 236 231 238 229 241 251 266 247 264 267 279 276 288 297 280 276 294 288 299 111 309 316 314 311 310 307 304 302 300 298 296 294 292
194 197 196 191 176 172 162 173 192 198 229 236 224 229 239 246 266 270 276 279 285 280 271 270 281 281 289 294 290 0 300 301 299 302 304 305 303 302 300 295 295 295 293
185 182 169 189 193 164 171 149 194 219 230 231 225 240 244 235 237 258 273 282 279 275 268 268 230 266 279 285 320 283 285 306 296 300 299 300 300 297 295 294 294 293 293
196 173 179 188 179 169 162 180 220 220 217 221 231 234 239 250 250 258 260 266 272 280 281 292 299 271 270 271 294 299 294 297 314 296 293 297 296 295 295 295 294 296 295
199 187 181 180 132 182 195 210 210 210 229 235 245 237 240 254 251 247 255 245 254 266 280 288 293 304 303 292 294 292 287 295 281 279 285 287 294 297 297 293 291 294 294
201 185 168 156 185 203 199 197 213 214 219 255 249 246 242 245 244 241 242 252 259 264 273 281 290 295 260 271 287 294 296 293 291 290 298 297 299 298 294 293 292 293 292
182 172 173 185 193 203 189 205 197 224 260 266 252 240 244 241 238 247 246 249 258 263 276 282 289 293 288 294 296 292 288 293 293 294 303 298 294 292 290 288 292 290 291
182 186 185 189 176 180 189 180 156 182 252 253 256 246 243 245 245 247 245 252 254 259 266 273 280 285 289 288 281 286 291 291 287 300 283 283 285 286 288 287 288 287 288
194 184 182 183 181 182 179 152 133 253 258 259 265 258 255 252 254 249 249 249 256 265 269 265 270 280 284 284 281 280 287 300 301 307 293 272 264 271 268 270 273 276 280
175 175 156 138 169 157 149 95 254 269 266 266 261 257 256 255 257 256 256 248 248 252 261 265 270 277 280 277 285 303 291 300 301 297 303 307 309 300 289 266 253 257 303
153 140 138 127 134 167 105 194 261 273 279 276 273 273 271 255 243 239 238 247 258 249 246 261 274 275 278 277 282 283 291 296 300 311 319 308 300 300 295 280 329 308 298
119 117 127 147 161 178 203 242 271 281 281 279 280 281 278 271 251 253 224 229 226 230 243 262 266 267 273 276 282 279 278 291 299 308 302 298 302 301 298 298 292 306 301
135 151 156 174 206 243 233 236 258 277 273 278 280 280 277 276 271 248 250 219 225 220 226 229 247 264 262 265 269 275 286 283 281 287 296 298 307 302 306 306 290 275 291
146 158 194 236 239 247 247 269 268 282 285 283 284 283 279 277 271 221 236 239 232 232 197 211 256 280 284 257 262 284 272 275 286 296 305 302 311 315 311 298 276 341 301
95 36 346 320 270 261 249 242 265 289 285 284 286 284 266 256 276 206 223 233 234 233 226 217 227 238 241 240 228 243 260 267 282 289 294 292 306 308 313 291 324 308 309